Social login voor leden:

1. METAR EBOS

METAR EBOS 251950Z 19006KT 8000 SCT048 09/07 Q1017 NOSIG

2. TAF EBOS

TAF EBOS 251950Z 19006KT 8000 SCT048 09/07 Q1017 NOSIG

3. NOTAMS EBOS

Klik hier voor een overzicht van de notams.

Deze pagina promoten

Noordzee Vliegclub - Nieuwpoortsesteenweg 947 8400 Oostende - Tel 059 30 04 79 - info@nzvc.be - 

 - Copyright 2020